#timestamp,LO_Frequency,Hit,StdDev 
1509393615.2,286046995.3,N
1509393635.1,286046995.1,N
1509393636.0,286046995.1,N
1509393655.8,286046995.5,N
1509393675.6,286046993.3,Y
1509393695.5,286046999.4,P
1509393715.3,286047001.2,N
1509393735.2,286047001.0,N
1509393755.9,286047000.4,N
1509393775.7,286047002.8,N
1509393795.6,286046998.2,N
1509393815.4,286046998.3,N
1509393835.2,286046998.4,N
1509393855.1,286046998.6,N
1509393856.0,286046998.6,N
1509393875.8,286047000.9,N
1509393895.7,286047000.2,N
1509393915.5,286046998.2,N
1509393935.3,286046999.8,N
1509393955.2,286047002.3,N
1509393975.0,286047002.2,N
1509393975.9,286047002.2,N
1509393995.7,286047002.4,N
1509394015.6,286047000.6,N
1509394035.4,286047000.9,N
1509394055.3,286046999.2,N
1509394075.1,286046996.6,N
1509394076.0,286046996.6,N
1509394095.8,286046995.5,N
1509394115.7,286046995.5,N
1509394135.5,286046995.3,N
1509394155.3,286046997.7,N
1509394175.2,286046996.9,N
1509394195.0,286046999.0,N
1509394195.9,286046999.0,N
1509394215.8,286046998.9,N
1509394235.6,286046999.5,N
1509394255.4,286046997.1,N
1509394275.3,286046997.8,N
1509394295.1,286046997.4,N
1509394315.8,286046996.1,N
1509394335.7,286046996.2,N
1509394355.5,286046996.4,N
1509394375.4,286046997.6,N
1509394395.2,286047011.9,Y
1509394415.0,286047000.9,P
1509394415.9,286047000.9,N
1509394435.8,286047000.4,N
1509394455.6,286047000.4,N
1509394475.4,286047000.5,N
1509394495.3,286046998.9,N
1509394545.1,286046999.4,E
1509394555.1,286047000.8,N
1509394556.0,286047000.8,P
1509394575.8,286046998.1,P
1509394595.6,286047000.8,N
1509394615.5,286047000.1,N
1509394635.3,286047000.1,N
1509394655.2,286047003.8,Y
1509394675.9,286047005.8,P
1509394695.7,286047003.3,N
1509394715.6,286047003.2,N
1509394735.4,286047003.9,N
1509394755.2,286047005.9,Y
1509394775.1,286047000.3,P
1509394776.0,286047000.3,N
1509394795.8,286047002.0,N
1509394815.7,286047000.3,N
1509394835.5,286047002.1,N
1509394855.3,286047005.5,Y
1509394875.2,286047003.4,P
1509394895.0,286047003.6,P
1509394895.9,286047003.6,P
1509394915.7,286047000.0,N
1509394935.6,286046998.2,N
1509394955.4,286046998.2,N
1509394975.3,286047001.2,N
1509394995.1,286047000.9,N
1509394996.0,286047000.9,N
1509395015.8,286047001.0,N
1509395035.7,286047001.0,N
1509395055.5,286047000.2,N
1509395075.3,286046998.2,N
1509395095.2,286047001.2,N
1509395115.0,286047000.6,N
1509395115.9,286047000.6,N
1509395135.8,286046999.0,N
1509395155.6,286046998.9,N
1509395175.4,286046998.2,N
1509395195.3,286046996.9,N
1509395215.1,286046996.7,N
1509395235.8,286046998.9,N
1509395255.7,286046997.3,N
1509395275.5,286046997.3,N
1509395295.4,286046997.1,N
1509395315.2,286046996.7,N
1509395335.0,286046999.2,N
1509395335.9,286046999.2,N
1509395355.8,286046996.9,N
1509395375.6,286046996.5,N
1509395395.5,286046996.6,N
1509395415.3,286046999.0,N
1509395435.1,286047001.2,N
1509395455.9,286047002.3,N
1509395475.7,286046998.1,N
1509395495.5,286046998.4,N
1509395515.4,286046998.7,N
1509395535.2,286046998.6,N
1509395555.1,286046998.2,N
1509395556.0,286046998.2,N
1509395575.8,286047000.3,N
1509395595.6,286047002.3,N
1509395615.5,286047001.9,N
1509395635.3,286047001.9,N
1509395655.2,286047002.2,N
1509395675.9,286047001.4,N
1509395695.7,286047001.9,N
1509395715.6,286047002.9,N
1509395735.4,286047003.8,N
1509395755.2,286047005.8,N
1509395775.1,286047002.9,N
1509395776.0,286047002.9,N
1509395795.8,286047003.5,N
1509395815.7,286047003.3,N
1509395835.5,286047003.3,N
1509395855.3,286047001.5,N
1509395875.2,286047002.4,N
1509395895.0,286047003.6,N
1509395895.9,286047003.6,N
1509395915.7,286047003.0,N
1509395935.6,286047005.4,N
1509395955.4,286047003.7,N
1509395975.3,286047003.6,N
1509395995.1,286047005.7,N
1509395996.0,286047005.7,N
1509396015.8,286047006.0,N
1509396035.7,286047005.8,N
1509396055.5,286047003.4,N
1509396075.3,286047003.8,N
1509396095.2,286047007.2,Y
1509396115.0,286047003.9,P
1509396115.9,286047003.9,P
1509396135.8,286047004.8,P
1509396155.6,286047003.3,Y
1509396175.4,286046998.7,P
1509396195.3,286046998.3,N
1509396215.1,286046999.1,N
1509396235.9,286047000.9,N
1509396255.7,286046999.9,N
1509396275.5,286046998.4,N
1509396295.4,286046998.4,N
1509396315.2,286047001.1,N
1509396335.0,286047000.8,N
1509396366.0,286046999.9,E
1509396375.9,286047001.6,N
1509396395.7,286047004.2,P
1509396415.6,286047004.0,P
1509396435.4,286047003.5,N
1509396455.2,286047004.0,Y
1509396475.1,286047000.9,P
1509396476.0,286047000.9,N
1509396495.8,286047001.5,N
1509396515.6,286047001.8,N
1509396535.5,286047002.8,Y
1509396555.3,286047001.0,P
1509396575.2,286047000.7,N
1509396595.0,286046999.7,N
1509396595.9,286046999.7,N
1509396615.7,286047000.0,N
1509396635.6,286047002.2,N
1509396655.4,286047001.1,N
1509396675.3,286047000.6,N
1509396695.1,286047000.0,N
1509396715.8,286047002.6,Y
1509396735.7,286047001.9,P
1509396755.5,286047001.4,N
1509396775.4,286047004.0,P
1509396795.2,286047001.3,N
1509396815.0,286047004.2,Y
1509396815.9,286047004.2,P
1509396835.8,286047002.1,N
1509396855.6,286047002.4,N
1509396875.4,286047002.2,N
1509396895.3,286047001.3,N
1509396915.1,286047003.6,Y
1509396935.9,286047000.2,P
1509396955.7,286047000.6,N
1509396975.5,286046999.7,N
1509396995.4,286047002.7,N
1509397015.2,286047002.0,N
1509397035.0,286047002.5,N
1509397035.9,286047002.5,N
1509397055.8,286046999.9,N
1509397075.6,286047001.5,N
1509397095.5,286047002.5,N
1509397115.3,286047000.0,N
1509397135.1,286047002.7,N
1509397155.9,286046999.8,N
1509397175.7,286047011.9,Y
1509397195.5,286046998.9,P
